sat.trackr.live / text

‹ back to catalog

STARLINK-34359

NORAD 64280 · 2025-120AA

PAYLOAD ACTIVE UNKNOWN

§ Identity

Operator
Country
US
Launch date
2025-06-04
Launch site
AFWTR
Launch vehicle
Mass (kg)
RCS (m²)

Purposes: comms

External: N2YO · Heavens-Above · Gunter

§ Orbital elements

Epoch: 2026-05-25T02:35:43.772064Z

Period
94.10 min
Inclination
53.1576°
Eccentricity
0.0001995
Mean motion
15.30208571 rev/d
Perigee alt
473.8 km
Apogee alt
476.6 km
Semi-major
6,853.3 km
B*
3.7374e-4
RAAN
121.9057°
Arg perigee
127.7568°
Mean anomaly
232.3613°
Rev number
5,561

§ Raw data

STARLINK-343591 64280U 25120AA  26145.10814551  .00010729  00000+0  37374-3 0  99982 64280  53.1576 121.9057 0001995 127.7568 232.3613 15.30208571 55613

JSON: /api/v1/satellites/64280 · /tle

For live sub-satellite position, see the globe view (requires WebGL).

§ Visibility from observer

Set your observer location to see the next 7 days of passes ≥ 10°. The values pass through the URL so the page stays shareable.

No JS? Fill the form by hand. The geolocation button needs JavaScript.